This demonstration page uses our WeatherBlox Daily Observations layout. Learn more.

40.92945, -100.16068

Hourly Observations for January 7, 2018

Temp ( °F °C ) Dew Point ( °F °C ) Humidity (%) Winds ( mph kmh ) Pressure ( in mb ) Visibility ( mi km ) Precip ( " mm )
12:15 am 00:15 Clear 26 -3.5 18 -8 71 71 S 7 11 30.03 1017 10 16.0934 0 0
12:35 am 00:35 Clear 25 -3.7 18 -8 72 72 SSE 7 11 30.03 1017 10 16.0934 0 0
12:55 am 00:55 Clear 25 -4.1 18 -8 75 75 S 6 9 30 1016 10 16.0934 0 0
1:15 am 01:15 Clear 26 -3.6 18 -7.8 73 73 S 5 7 29.97 1015 10 16.0934 0 0
1:35 am 01:35 Clear 27 -3 18 -7.6 71 71 S 6 9 29.97 1015 10 16.0934 0 0
1:55 am 01:55 Clear 26 -3.3 18 -7.7 72 72 S 3 6 29.94 1014 10 16.0934 0 0
2:15 am 02:15 Clear 26 -3.6 19 -7.4 75 75 Calm 29.94 1014 10 16.0934 0 0
2:35 am 02:35 Clear 25 -3.7 18 -7.8 74 74 Calm 29.94 1014 10 16.0934 0 0
2:55 am 02:55 Clear 22 -5.3 17 -8.4 79 79 NW 6 9 29.97 1015 10 16.0934 0 0
3:15 am 03:15 Clear 21 -6 16 -8.7 81 81 WNW 3 6 29.97 1015 10 16.0934 0 0
3:35 am 03:35 Clear 22 -5.7 17 -8.5 81 81 WNW 5 7 29.97 1015 10 16.0934 0 0
3:55 am 03:55 Clear 21 -6.2 16 -8.9 81 81 WNW 6 9 29.97 1015 10 16.0934 0 0
4:15 am 04:15 Clear 23 -5.1 18 -7.7 82 82 WNW 7 11 29.97 1015 10 16.0934 0 0
4:35 am 04:35 Partly Cloudy 25 -3.8 20 -6.6 81 81 NW 7 11 29.94 1014 10 16.0934 0 0
4:55 am 04:55 Mostly Cloudy 26 -3.6 20 -6.8 79 79 NW 5 7 29.94 1014 10 16.0934 0 0
5:15 am 05:15 Mostly Cloudy 26 -3.5 20 -6.5 80 80 WNW 3 6 29.94 1014 10 16.0934 0 0
5:35 am 05:35 Cloudy 26 -3.2 20 -6.4 79 79 WNW 8 13 29.94 1014 10 16.0934 0 0
5:55 am 05:55 Cloudy 27 -2.7 21 -6.1 78 78 W 10 17 29.94 1014 10 16.0934 0 0
6:15 am 06:15 Cloudy 28 -2.5 21 -6 77 77 WNW 8 13 29.94 1014 10 16.0934 0 0
6:35 am 06:35 Cloudy 28 -2 22 -5.5 77 77 WNW 10 17 29.97 1015 10 16.0934 0 0
6:55 am 06:55 Cloudy 30 -1.3 23 -4.8 77 77 WNW 10 17 29.97 1015 10 16.0934 0 0
7:15 am 07:15 Cloudy 30 -1 24 -4.3 79 79 W 9 15 29.97 1015 10 16.0934 0 0
7:35 am 07:35 Cloudy 32 -0.2 26 -3.5 79 79 WNW 12 19 29.94 1014 10 16.0934 0 0
7:55 am 07:55 Cloudy 31 -0.3 26 -3.4 80 80 WNW 9 15 29.97 1015 10 16.0934 0 0
8:15 am 08:15 Cloudy with Light Wintry Mix 33 0.5 29 -1.9 84 84 WNW 10 17 29.97 1015 10 16.0934 0 0
8:35 am 08:35 Partly Cloudy 33 0.5 29 -1.7 85 85 WNW 10 17 29.97 1015 10 16.0934 0 0
8:55 am 08:55 Mostly Cloudy 33 0.5 29 -1.5 87 87 WNW 8 13 29.97 1015 10 16.0934 0 0
9:15 am 09:15 Cloudy 33 0.8 29 -1.4 85 85 WNW 7 11 29.97 1015 10 16.0934 0 0
9:35 am 09:35 Cloudy 35 1.9 32 -0.2 86 86 WNW 14 22 30 1016 10 16.0934 0 0
9:55 am 09:55 Cloudy 37 2.5 32 0 84 84 WNW 15 24 30 1016 10 16.0934 0 0
10:15 am 10:15 Mostly Cloudy 37 2.6 32 0 83 83 WNW 12 19 30.03 1017 10 16.0934 0 0
10:35 am 10:35 Sunny 37 2.6 32 0 83 83 WNW 14 22 30.03 1017 10 16.0934 0 0
10:55 am 10:55 Sunny 39 3.7 33 0.3 79 79 WNW 12 19 30 1016 10 16.0934 0 0
11:15 am 11:15 Sunny 39 3.8 33 0.3 78 78 WNW 13 20 30 1016 10 16.0934 0 0
11:35 am 11:35 Sunny 39 4.1 33 0.5 78 78 WNW 10 17 30 1016 10 16.0934 0 0
11:55 am 11:55 Sunny 40 4.5 33 0.5 76 76 WNW 15 24 30 1016 10 16.0934 0 0
12:15 pm 12:15 Sunny 41 5 33 0.6 73 73 WNW 12 19 30 1016 10 16.0934 0 0
12:35 pm 12:35 Sunny 41 5.2 33 0.7 73 73 NW 12 19 29.97 1015 10 16.0934 0 0
12:55 pm 12:55 Sunny 42 5.5 33 0.6 71 71 WNW 16 26 29.97 1015 10 16.0934 0 0
1:15 pm 13:15 Sunny 42 5.5 33 0.6 71 71 WNW 13 20 29.97 1015 10 16.0934 0 0
1:35 pm 13:35 Sunny 42 5.5 33 0.6 71 71 WNW 13 20 29.97 1015 10 16.0934 0 0
1:55 pm 13:55 Sunny 43 6 34 1 71 71 WNW 15 24 29.94 1014 10 16.0934 0 0
2:15 pm 14:15 Partly Cloudy 43 6.3 34 1 69 69 WNW 13 20 29.94 1014 10 16.0934 0 0
2:35 pm 14:35 Sunny 44 6.4 34 1.1 69 69 WNW 14 22 29.94 1014 10 16.0934 0 0
2:55 pm 14:55 Sunny 44 6.5 34 1.3 70 70 WNW 10 17 29.94 1014 10 16.0934 0 0
3:15 pm 15:15 Sunny 45 7 35 1.6 69 69 NW 9 15 29.94 1014 10 16.0934 0 0
3:35 pm 15:35 Sunny 45 7 36 2 71 71 WNW 8 13 29.97 1015 10 16.0934 0 0
3:55 pm 15:55 Sunny 46 7.5 34 1.2 65 65 NNW 14 22 29.97 1015 10 16.0934 0 0
4:15 pm 16:15 Sunny 45 7.1 34 0.9 65 65 NNW 15 24 29.97 1015 10 16.0934 0 0
4:35 pm 16:35 Sunny 44 6.4 34 1 69 69 NW 10 17 30.03 1017 10 16.0934 0 0
4:55 pm 16:55 Sunny 42 5.7 33 0.8 71 71 NW 10 17 30.03 1017 10 16.0934 0 0
5:15 pm 17:15 Sunny 40 4.6 33 0.5 75 75 WNW 10 17 30.03 1017 10 16.0934 0 0
5:35 pm 17:35 Clear 38 3.4 33 0.3 80 80 WNW 10 17 30.06 1018 10 16.0934 0 0
5:55 pm 17:55 Clear 37 3 32 0 81 81 WNW 9 15 30.09 1019 10 16.0934 0 0
6:15 pm 18:15 Clear 37 2.6 32 0 83 83 WNW 10 17 30.09 1019 10 16.0934 0 0
6:35 pm 18:35 Clear 37 2.6 32 0 83 83 WNW 9 15 30.09 1019 10 16.0934 0 0
6:55 pm 18:55 Clear 37 2.5 32 0 84 84 WNW 8 13 30.12 1020 10 16.0934 0 0
7:15 pm 19:15 Clear 37 2.6 32 0 83 83 WNW 10 17 30.12 1020 10 16.0934 0 0
7:35 pm 19:35 Clear 36 2.3 32 0 85 85 WNW 10 17 30.12 1020 10 16.0934 0 0
7:55 pm 19:55 Clear 35 1.8 31 -0.5 85 85 WNW 9 15 30.12 1020 10 16.0934 0 0
8:15 pm 20:15 Clear 35 1.4 31 -0.6 87 87 NW 6 9 30.12 1020 10 16.0934 0 0
8:35 pm 20:35 Clear 33 0.8 30 -1.1 87 87 NW 7 11 30.15 1021 10 16.0934 0 0
8:55 pm 20:55 Clear 32 0 29 -1.7 88 88 WNW 6 9 30.15 1021 10 16.0934 0 0
9:15 pm 21:15 Clear 32 0 29 -1.4 90 90 WNW 8 13 30.15 1021 10 16.0934 0 0
9:35 pm 21:35 Clear 32 -0.1 29 -1.8 88 88 WNW 9 15 30.15 1021 10 16.0934 0 0
9:55 pm 21:55 Clear 31 -0.3 29 -1.8 90 90 WNW 9 15 30.15 1021 10 16.0934 0 0
10:15 pm 22:15 Clear 31 -0.5 28 -2 90 90 WNW 9 15 30.15 1021 10 16.0934 0 0
10:35 pm 22:35 Clear 30 -1 28 -2.2 92 92 WNW 7 11 30.15 1021 10 16.0934 0 0
10:55 pm 22:55 Clear 30 -1.3 27 -2.7 90 90 W 9 15 30.15 1021 10 16.0934 0 0
11:15 pm 23:15 Clear 30 -1.1 28 -2.5 90 90 W 9 15 30.15 1021 10 16.0934 0 0
11:35 pm 23:35 Clear 29 -1.6 27 -3 90 90 WNW 8 13 30.18 1022 10 16.0934 0 0
11:55 pm 23:55 Clear 31 -0.6 28 -2.5 87 87 NW 7 11 30.18 1022 10 16.0934 0 0

Powered by AerisWeather